Location: Camp Crooked Creek
(37.9149°N, 85.6607°W)
Time: 13:11:42
(UTC-05:00)

Daily predictions for brighter satellites

Satellite Brightness Start Highest point End
(mag) Time Altitude Azimuth Time Altitude Azimuth Time Altitude Azimuth
CSL-04 Rocket 3.9 18:12:57 10° SSE 18:18:30 84° WSW 18:24:04 10° NNW
Cosmos 2341 Rocket 4.1 18:12:30 10° N 18:18:48 86° E 18:25:08 10° S
YAOGAN 1 2.9 18:15:32 10° SE 18:19:37 43° ENE 18:23:43 10° N
Meteor 2-16 Rocket 4.5 18:13:42 10° N 18:19:48 65° E 18:25:51 10° SSE
Cosmos 1300 2.9 18:17:29 10° N 18:21:12 46° E 18:24:52 10° SSE
ERS-2 3.9 18:20:13 10° E 18:22:06 14° ENE 18:23:59 10° NE
Cosmos 1943 Rocket 2.2 18:17:06 10° NNW 18:22:43 85° ENE 18:28:15 10° SSE
Meteor 2-21 Rocket 4.5 18:17:21 10° N 18:23:28 86° E 18:29:31 10° S
IRAS Rocket 4.3 18:21:00 10° SSE 18:26:31 83° ENE 18:32:08 10° NNW
SL-24 R/B - RUBIN 2 4.3 18:22:45 10° NNW 18:26:49 32° NE 18:30:42 10° ESE
Cosmos 2058 4.4 18:29:40 10° SE 18:32:28 18° E 18:35:18 10° NE
Cosmos 2221 2.9 18:29:17 10° NNW 18:33:39 71° W 18:38:00 10° S
SL-14 R/B 3.3 18:29:58 10° S 18:33:58 90° E 18:37:56 10° N
Ariane Rocket 3.4 18:29:41 10° S 18:34:42 70° WSW 18:39:47 10° NNW
CZ-2C R/B 3.8 18:30:07 10° NNE 18:34:51 85° ESE 18:39:27 10° SSW
OAO 3 Rocket 3.5 18:34:28 10° W 18:39:04 60° S 18:43:43 10° ESE
Cosmos 2181 Rocket 4.4 18:32:52 10° SSW 18:39:18 72° W 18:45:43 10° N
FENGYUN 3A 3.8 18:37:19 10° SSE 18:42:28 51° ENE 18:47:39 10° N
Cosmos 44 3.0 18:38:39 10° SSW 18:42:56 89° SE 18:47:22 10° NNE
Cosmos 371 Rocket 4.5 18:39:41 10° SSE 18:43:23 22° E 18:46:37 12° NE
ASTRO E2 4.2 18:42:01 10° SW 18:45:28 28° S 18:48:55 10° ESE
CZ-4 R/B 2.4 18:45:34 10° S 18:49:41 54° W 18:53:52 10° NNW
Cosmos 1408 Rocket 3.4 18:46:59 10° S 18:51:14 68° E 18:55:31 10° NNE
Cosmos 2151 3.9 18:47:50 10° SSE 18:51:27 28° E 18:55:06 10° NNE
Cosmos 1726 4.1 18:48:13 10° NNW 18:51:30 31° W 18:54:46 10° SSW
Cosmos 1515 Rocket 4.5 18:49:50 10° NNE 18:53:27 25° ENE 18:57:01 10° SE
METEOR-M 4.4 18:50:37 10° S 18:55:57 74° WSW 19:01:19 10° NNW
SL-8 Rocket 4.3 18:50:21 10° N 18:56:32 74° W 19:02:44 10° S
SPOT 3 Rocket 3.6 18:52:10 10° SSE 18:57:10 56° ENE 19:02:13 10° N
TSX-5 4.4 18:57:23 10° SW 19:00:24 43° WNW 19:03:45 10° NNE
Cosmos 1777 Rocket 4.0 18:55:32 10° NNW 19:00:44 62° ENE 19:05:57 10° SSE
Meteor 1-27 4.4 18:56:48 10° N 19:02:23 52° ENE 19:08:00 10° SSE
COSMO-SKYMED 1 2.9 18:58:08 10° N 19:02:28 69° WNW 19:06:46 10° SSW
Meteor 1-11 4.1 18:57:01 10° S 19:02:33 69° E 19:08:10 10° NNE
NOSS 3 (A) 4.3 18:59:53 10° SSW 19:02:37 84° ESE 19:04:15 23° NE
Cosmos 2218 Rocket 4.1 18:57:29 10° N 19:03:39 78° W 19:09:46 10° S
Cosmos 1500 Rocket 4.2 19:00:23 10° SSE 19:04:23 34° E 19:07:49 13° NNE
Cosmos 1346 Rocket 2.7 19:01:21 10° N 19:05:12 55° E 19:09:00 10° SSE
Cosmos 1315 Rocket 3.6 19:01:48 10° SSW 19:05:38 51° W 19:09:28 10° N
H-2A R/B 3.2 19:04:24 10° SE 19:07:54 37° ENE 19:11:30 10° N
COSMOS 2406 3.3 19:02:35 10° S 19:08:11 59° ESE 19:13:27 12° NNE
USA 81 4.4 19:04:04 10° SSE 19:08:59 42° E 19:13:55 10° NNE
Cosmos 2228 Rocket 3.2 19:12:25 10° N 19:16:54 51° E 19:21:21 10° SSE
Cosmos 44 Rocket 3.8 19:12:44 10° SW 19:17:17 54° WNW 19:21:34 12° NNE
FengYun 1-2 T 4.3 19:13:31 10° SSE 19:18:57 53° ENE 19:24:23 10° N
Cosmos 1743 Rocket 3.4 19:14:39 10° S 19:18:58 66° E 19:23:17 10° NNE
Cosmos 1455 2.3 19:15:19 10° N 19:19:03 48° E 19:22:44 10° SSE
Cosmos 1328 Rocket 3.4 19:20:43 10° N 19:25:06 87° E 19:29:25 10° S
Cosmos 1241 Rocket 4.4 19:24:22 10° NNW 19:30:33 63° ENE 19:36:32 11° SE
Tiangong 1 2.0 19:30:10 10° WNW 19:31:43 33° WNW 19:31:43 33° WNW
TIMED 4.3 19:31:41 10° NNW 19:36:04 72° ENE 19:40:22 10° SSE
GEOS 3 Rocket 4.1 19:35:23 37° ENE 19:36:08 39° NE 19:41:06 10° NNW
Cosmos 1626 4.0 19:32:53 10° SW 19:36:13 31° WNW 19:39:34 10° NNW
Cosmos 2098 Rocket 4.0 19:30:53 10° N 19:36:23 80° W 19:43:09 10° S
ALOS 3.6 19:33:15 10° SSW 19:37:38 40° W 19:42:01 10° NNW
Cosmos 332 Rocket 3.8 19:33:09 10° SSW 19:38:03 86° WNW 19:41:20 21° NNE
Meteor 2-15 Rocket 4.4 19:33:39 10° S 19:39:39 59° E 19:45:38 10° NNE
Lacrosse 5 2.7 19:38:44 10° S 19:42:43 32° SE 19:42:43 32° SE
NOSS 3-4 (A) 4.1 19:37:51 10° NW 19:44:58 72° WSW 19:52:35 10° SSE
NOSS 3-4 (C) 4.1 19:37:57 10° NW 19:45:04 73° WSW 19:52:42 10° SSE
Cosmos 1821 Rocket 3.9 19:39:02 10° N 19:45:11 67° E 19:51:22 10° SSE
Cosmos 1535 Rocket 4.4 19:40:12 10° N 19:46:14 57° E 19:52:13 10° SSE
Cosmos 1570 Rocket 3.9 19:46:46 10° SSW 19:52:05 88° ESE 19:54:21 36° NNE
SEDSat Delta rocket 4.5 19:47:04 10° WSW 19:53:25 47° S 19:55:14 37° SE
ERS-2 3.8 19:52:01 10° SSW 19:55:24 35° W 19:58:49 10° NNW
Nadezhda 3 Rocket 4.4 19:49:13 10° SSW 19:55:28 66° W 20:01:49 10° N
Cosmos 1151 Rocket 3.5 19:55:33 10° NNW 19:59:52 60° W 20:04:11 10° S
CZ-4C R/B 2.8 20:06:15 10° SSW 20:09:27 38° S 20:09:27 38° S
Thor Agena Rocket 3.9 20:16:03 34° N 20:18:14 62° WNW 20:23:21 10° SSW
OAO 3 Rocket 4.4 20:17:58 10° W 20:21:47 34° SSW 20:21:47 34° SSW
Cosmos 1934 Rocket 4.0 20:16:41 10° N 20:23:04 84° W 20:29:26 10° S
Cosmos 2082 Rocket 4.3 20:31:31 10° S 20:32:30 15° S 20:32:30 15° S
